Flag for Laos Weather past 2 weeks in Vientiane, Laos

Now
86 °F

Fog.


Feels Like: 95 °F
Forecast: 81 / 99 °F
Wind: 2 mph from Southwest

Location: Vientiane Airport

Current Time: Jul 1, 2015 at 12:08:23 AM

Latest Report: Jun 30, 2015 at 11:00 PM


Visibility: 2 mi

Pressure: 29.71 "Hg

Humidity: 70%

Dew point: 75 °F

Location of VientianeLocation

Historic Weather in Vientiane — Graph

°F

Vientiane temperature yesterday

Maximum temperature yesterday: 99 °F (at 3:00 PM)
Minimum temperature yesterday: 82 °F (at 6:00 AM)
Average temperature yesterday: 91 °F

Past Weeks' High & Low Weather Summary

 TemperatureHumidityPressure
High99 °F (Jun 30, 3:00 PM)100% (Jun 16, 6:00 AM)29.89 "Hg (Jun 16, 6:00 AM)
Low77 °F (Jun 16, 6:00 AM)44% (Jun 29, 5:00 PM)29.53 "Hg (Jun 22, 3:00 PM)
Average88 °F68%29.67 "Hg
* Reported Jun 15 10:00 PM — Jun 30 10:00 PM, Vientiane, Weather by CustomWeather, © 2015

Note: Actual official high and low records may vary slightly from our data, if they occured in-between our weather recording intervals... More about our weather records

Advertising

Vientiane weather history for previous 24 hours

 ConditionsComfort  
Time TempWeatherWind HumidityBarometerVisibility
10:00 PM
Tue, Jun 30
86 °FFog.2 mph70%29.71 "Hg2 mi
8:00 PM91 °FFog.5 mph52%29.68 "Hg3 mi
6:30 PM97 °FScattered clouds.5 mph50%29.65 "HgN/A
6:00 PM97 °FScattered clouds.5 mph50%29.65 "HgN/A
5:00 PM99 °FScattered clouds.7 mph47%29.65 "HgN/A
4:30 PM99 °FScattered clouds.9 mph47%29.68 "HgN/A
4:00 PM99 °FScattered clouds.9 mph47%29.68 "HgN/A
3:30 PM99 °FScattered clouds.7 mph44%29.68 "HgN/A
3:00 PM99 °FScattered clouds.7 mph44%29.68 "HgN/A
2:30 PM95 °FScattered clouds.7 mph50%29.77 "HgN/A
2:00 PM95 °FScattered clouds.7 mph50%29.77 "HgN/A
12:00 PM95 °FPassing clouds.5 mph47%29.77 "HgN/A
11:30 AM91 °FPassing clouds.7 mph52%29.80 "HgN/A
11:00 AM90 °FScattered clouds.7 mph55%29.80 "HgN/A
10:30 AM90 °FScattered clouds.7 mph55%29.80 "HgN/A
10:00 AM90 °FScattered clouds.7 mph55%29.80 "HgN/A
9:30 AM88 °FScattered clouds.5 mph55%29.80 "HgN/A
9:00 AM88 °FScattered clouds.5 mph55%29.80 "HgN/A
8:30 AM86 °FScattered clouds.2 mph62%29.77 "HgN/A
8:00 AM86 °FScattered clouds.2 mph62%29.77 "HgN/A
7:30 AM82 °FScattered clouds.2 mph70%29.77 "HgN/A
7:00 AM82 °FScattered clouds.2 mph70%29.77 "HgN/A
6:30 AM82 °FPartly sunny.2 mph79%29.74 "Hg5 mi
6:00 AM82 °FPartly sunny.2 mph79%29.74 "Hg5 mi
Weather by CustomWeather, © 2015

See weather overviewHow to use our weather pages